Location: ?nandapuram
(16.5396°N, 81.1430°E)
Time: 15:54:00
(UTC+00:00)

OAO 2 Rocket - Pass Details

Date: 14 April 2026
Orbit: 668 x 734 km, 35.0° (Epoch: 11 May)

Event Time Altitude Azimuth Distance (km) Brightness Sun altitude
Rises 14:55:20 0° 255° (WSW) 3,098 7.4 -29.6°
Reaches altitude 10° 14:57:54 10° 263° (W) 2,168 6.5 -30.2°
Enters shadow 15:02:28 39° 326° (NW) 1,043 4.5 -31.2°
